Regional Weather Roundup
Issued by NWS

Home | Current Version | Previous Version | Text Only | Print | Product List | Glossary On
Versions: 1 2 3 4 5 6 7 8 9 10 11 12 13 14 15 16 17 18 19 20 21 22 23 24 25 26 27 28 29 30 31 32 33 34 35 36 37 38 39 40 41 42 43 44 45 46 47 48 49 50
000
ASUS43 KMPX 301110
RWRMN
WEATHER ROUNDUP FOR MINNESOTA
NATIONAL WEATHER SERVICE TWIN CITIES/CHANHASSEN MN
600 AM CDT TUE SEP 30 2014


NOTE: "FAIR" INDICATES FEW OR NO CLOUDS BELOW 12,000 FEET WITH NO
SIGNIFICANT WEATHER AND/OR OBSTRUCTIONS TO VISIBILITY. N/A MEANS
CURRENT SKY AND/OR WEATHER CONDITIONS ARE NOT AVAILABLE.

MNZ060>063-068>070-301200-
   Twin Cities Metro

CITY           SKY/WX    TMP DP  RH WIND       PRES   REMARKS
TWIN CITIES    CLOUDY    43  39  86 E10       30.08F
ST PAUL        CLOUDY    43  39  86 E12       30.10F
CRYSTAL        CLOUDY    43  38  82 E9        30.08F
BLAINE         CLOUDY    45  43  93 E12       30.08F
LAKEVILLE      CLOUDY    41  39  93 E12       30.07F
EDEN PRAIRIE   CLOUDY    43  40  89 E13       30.06F
SOUTH ST PAUL  CLOUDY    43  39  84 E10       30.09F
LAKE ELMO      CLOUDY    43  39  87 E7        30.10F
$$
MNZ001>005-007-008-013>017-022>024-027-028-301200-
   Northwest Minnesota

CITY           SKY/WX    TMP DP  RH WIND       PRES   REMARKS
BEMIDJI        CLOUDY    43  40  91 SE14      30.05F
HALLOCK        PTCLDY    41  39  93 E7        30.00F
ROSEAU         CLOUDY    45  39  81 E7G17     30.05F
WARROAD        CLOUDY    43  39  87 SE10      30.08S
THIEF RVR FALL CLEAR     39  37  93 E10       30.01F
CROOKSTON      PTCLDY    39  39 100 SE6       30.00F
FOSSTON        MOCLDY    39  39 100 SE7       30.02S
DETROIT LAKES  CLOUDY    43  41  93 SE13      30.00F
PARK RAPIDS    CLOUDY    41  39  93 E12       30.04F
MAHNOMEN       CLOUDY    42  40  91 SE13      29.99F
$$
MNZ006-009>011-018-025>026-301200-
   North Central Minnesota

CITY           SKY/WX    TMP DP  RH WIND       PRES   REMARKS
BAUDETTE       CLOUDY    43  39  86 SE9       30.09F
FLAG ISLAND    CLOUDY    43  43 100 SE8G16    30.08S
INTL FALLS     CLOUDY    42  39  89 SE7       30.12S
WASKISH        CLOUDY    43  43 100 CALM      30.08F
BIG FORK       CLOUDY    43  39  87 SE5       30.11F
LONGVILLE      CLOUDY    41  39  93 SE3       30.07F
GRAND RAPIDS   CLOUDY    41  37  87 SE8       30.11S
CRANE LAKE     CLOUDY    39  39 100 CALM      30.15S
ORR            CLOUDY    39  36  87 SE5       30.10S
COOK           CLOUDY    41  39  93 SE3       30.13S
WALKER         CLOUDY    41  39  93 E7        30.06F
$$
MNZ012-019>021-037-301200-
   Northeast Minnesota

CITY           SKY/WX    TMP DP  RH WIND       PRES   REMARKS
DULUTH         CLOUDY    42  38  85 E12       30.13S
ELY            CLOUDY    39  37  93 SE6       30.14F
HIBBING        CLOUDY    42  38  85 SE13      30.12F
EVELETH        CLOUDY    41  39  93 SE5       30.14S
DULUTH HARBOR  CLOUDY    46  41  81 E12G18    30.16S
TWO HARBORS    CLOUDY    43  37  81 E6        30.13F
SILVER BAY     MOCLDY    39  39 100 E3        30.14F
GRAND MARAIS     N/A     44  37  76 CALM      30.18S
G MARAIS ARPRT CLOUDY    37  34  87 CALM      30.16R
$$
MNZ029>031-032-039>041-046>048-054>057-064-301200-
   West Central Minnesota

CITY           SKY/WX    TMP DP  RH WIND       PRES   REMARKS
FERGUS FALLS   CLOUDY    43  41  93 SE14      30.00F
WHEATON        CLOUDY    43  39  87 E13G18    29.99F
MORRIS         PTCLDY    45  43  93 SE15      29.98F
ALEXANDRIA     CLOUDY    41  40  96 SE16G23   30.03F FOG
ELBOW LAKE     CLOUDY    43  42  97 SE14G21   29.99F
WADENA         CLOUDY    41  39  93 SE9       30.03F
GLENWOOD       CLOUDY    41  39  93 E12       30.03S FOG
APPLETON       CLOUDY    45  43  93 E14G20    29.98F
BENSON         CLOUDY    43  43 100 SE8G17    30.01S
ORTONVILLE     CLOUDY    45  41  87 SE15      29.96F
MADISON        PTCLDY    48  45  87 E12G18    29.97F
WILLMAR        CLOUDY    45  41  87 E14       30.03F
$$
MNZ033>034-036-042>043-049>051-058-059-301200-
   Central Minnesota

CITY           SKY/WX    TMP DP  RH WIND       PRES   REMARKS
ST CLOUD       CLOUDY    43  40  89 E6        30.07F
SAUK CENTRE    CLOUDY    39  39  99 E12       30.04F FOG
PAYNESVILLE    CLOUDY    39  39 100 NE9       30.04F
AITKIN         CLOUDY    43  37  81 E7        30.08F
PINE RIVER     CLOUDY    41  39  93 SE8       30.10F
BRAINERD       CLOUDY    42  40  92 SE9       30.08F
STAPLES        CLOUDY    39  39 100 E6        30.05F
LONG PRAIRIE     N/A     37  37 100 E13       30.05F
LITTLE FALLS   CLOUDY    39  37  93 E7        30.07F
LITCHFIELD     CLOUDY    45  43  93 E9G16     30.05F
BUFFALO        CLOUDY    42  39  88 E9        30.07F
MAPLE LAKE     CLOUDY    43  42  95 E10       30.07F
$$
MNZ037-044-045-052-053-301200-
   East Central Minnesota

CITY           SKY/WX    TMP DP  RH WIND       PRES   REMARKS
PRINCETON      CLOUDY    43  39  87 E9G16     30.09F
MORA           CLOUDY    39  37  93 E3        30.12F
CAMBRIDGE      CLOUDY    45  36  70 E6        30.08F
RUSH CITY      LGT RAIN  42  39  90 E6        30.11F
MOOSE LAKE     CLOUDY    41  37  87 CALM      30.11F
HINCKLEY       CLOUDY    41  41 100 E7        30.12F
CLOQUET        CLOUDY    41  39  93 E8        30.12F
MCGREGOR       CLOUDY    41  37  87 E10       30.11F
$$
MNZ071>073-080-081-089-090-097-098-301200-
   Southwest Minnesota

CITY           SKY/WX    TMP DP  RH WIND       PRES   REMARKS
MONTEVIDEO     CLOUDY    43  43 100 SE14      30.01S
GRANITE FALLS  CLOUDY    44  41  91 E14       30.01F
CANBY          CLOUDY    46  44  92 E10G17    29.98F
MARSHALL       CLOUDY    46  41  81 SE14G20   29.96F
REDWOOD FALLS  CLOUDY    44  41  89 E12G18    30.01F
OLIVIA         CLOUDY    43  39  87 E12       30.02S
PIPESTONE      MOCLDY    50  46  87 SE15G22   29.92S
WINDOM         CLOUDY    46  45  93 E12       29.98F
WORTHINGTON    CLOUDY    48  46  93 E13       29.97F
JACKSON        CLOUDY    46  45  93 E8        29.99F
TRACY          CLOUDY    47  46  94 E10       29.98F
SLAYTON        CLOUDY    47  46  97 E9        29.96F
$$
MNZ065>067-074>077-082>085-091>093-301200-
   South Central Minnesota

CITY           SKY/WX    TMP DP  RH WIND       PRES   REMARKS
MANKATO        CLOUDY    43  37  81 E9        30.03F
NEW ULM        MOCLDY    43  43 100 E12       30.02F
ST JAMES       CLEAR     45  43  93 E10       30.02S
FAIRMONT       PTCLDY    45  41  87 E6        30.01R
GLENCOE        CLOUDY    43  39  87 E10G18    30.05F
FARIBAULT      CLOUDY    45  39  81 E9        30.06F
OWATONNA       CLOUDY    43  41  93 E12G20    30.05F
WASECA         CLOUDY    41  36  81 E13G20    30.05F
ALBERT LEA     CLOUDY    46  45  93 E14       30.04R
$$
MNZ078>079-086>088-094>096-301200-
   Southeast Minnesota

CITY           SKY/WX    TMP DP  RH WIND       PRES   REMARKS
ROCHESTER      CLOUDY    42  41  96 E9        30.08S
RED WING       CLOUDY    43  37  81 E10       30.09F
STANTON        CLOUDY    42  39  89 E7        30.07F
DODGE CENTER   CLOUDY    43  43 100 E13       30.06S
WINONA         CLOUDY    43  41  93 E7        30.10F
AUSTIN         CLOUDY    45  43  93 E7        30.04S FOG
PRESTON        CLOUDY    42  40  94 E9        30.08S
$$
ABBREVIATIONS USED IN REMARKS
   TC - TEMPERATURES IN CELSIUS
  WCI - WIND CHILL INDEX
   HX - HEAT INDEX
  VSB - VISIBILITY
$$



USA.gov is the U.S. government's official web portal to all federal, state and local government web resources and services.